Time,TemperatureF,DewpointF,PressureIn,WindDirection,WindDirectionDegrees,WindSpeedMPH,WindSpeedGustMPH,Humidity,HourlyPrecipIn,Conditions,Clouds,dailyrainin,SoftwareType,DateUTC
2013-02-02 00:00:00,18.0,5.7,30.12,SW,233,4.0,-999.0,57,-99.99,,,-99.99,custom,2013-02-02 05:00:00,
2013-02-02 00:01:00,18.0,4.1,30.13,WNW,291,6.0,-999.0,53,-99.99,,,-99.99,custom,2013-02-02 05:01:00,
2013-02-02 00:06:00,18.0,4.1,30.11,SW,227,5.0,-999.0,53,-99.99,,,-99.99,custom,2013-02-02 05:06:00,
2013-02-02 00:11:00,18.0,5.2,30.11,NW,310,3.0,-999.0,56,-99.99,,,-99.99,custom,2013-02-02 05:11:00,
2013-02-02 00:16:00,18.0,3.9,30.12,West,263,7.0,-999.0,53,-99.99,,,-99.99,custom,2013-02-02 05:16:00,
2013-02-02 00:21:00,18.0,6.1,30.13,WSW,243,3.0,-999.0,58,-99.99,,,-99.99,custom,2013-02-02 05:21:00,
2013-02-02 00:26:00,18.3,5.9,30.11,WSW,237,1.0,-999.0,57,-99.99,,,-99.99,custom,2013-02-02 05:26:00,
2013-02-02 00:31:00,18.0,6.6,30.12,South,178,1.0,-999.0,60,-99.99,,,-99.99,custom,2013-02-02 05:31:00,
2013-02-02 00:36:00,17.8,4.6,30.12,SW,235,4.0,-999.0,55,-99.99,,,-99.99,custom,2013-02-02 05:36:00,
2013-02-02 00:40:00,17.8,7.0,30.11,SSW,213,6.0,-999.0,61,-99.99,,,-99.99,custom,2013-02-02 05:40:00,
2013-02-02 00:45:00,18.0,8.6,30.11,SSW,213,1.0,-999.0,66,-99.99,,,-99.99,custom,2013-02-02 05:45:00,
2013-02-02 00:50:00,18.0,7.3,30.12,South,177,2.0,-999.0,62,-99.99,,,-99.99,custom,2013-02-02 05:50:00,
2013-02-02 00:55:00,18.0,5.0,30.12,SSE,165,3.0,-999.0,55,-99.99,,,-99.99,custom,2013-02-02 05:55:00,
2013-02-02 01:00:00,17.8,5.7,30.14,SSW,206,6.0,-999.0,58,-99.99,,,-99.99,custom,2013-02-02 06:00:00,
2013-02-02 01:05:00,17.8,5.9,30.15,SSW,206,2.0,-999.0,58,-99.99,,,-99.99,custom,2013-02-02 06:05:00,
2013-02-02 01:10:00,17.4,6.8,30.13,SSW,193,3.0,-999.0,61,-99.99,,,-99.99,custom,2013-02-02 06:10:00,
2013-02-02 01:15:00,17.1,5.0,30.14,WSW,249,5.0,-999.0,58,-99.99,,,-99.99,custom,2013-02-02 06:15:00,
2013-02-02 01:20:00,17.4,5.7,30.12,SW,217,2.0,-999.0,59,-99.99,,,-99.99,custom,2013-02-02 06:20:00,
2013-02-02 01:25:00,17.1,5.5,30.12,WSW,256,7.0,-999.0,59,-99.99,,,-99.99,custom,2013-02-02 06:25:00,
2013-02-02 01:30:00,17.6,7.3,30.13,SW,234,4.0,-999.0,63,-99.99,,,-99.99,custom,2013-02-02 06:30:00,
2013-02-02 01:35:00,17.4,5.2,30.14,West,279,5.0,-999.0,57,-99.99,,,-99.99,custom,2013-02-02 06:35:00,
2013-02-02 01:40:00,17.1,7.3,30.13,North,357,1.0,-999.0,64,-99.99,,,-99.99,custom,2013-02-02 06:40:00,
2013-02-02 01:45:00,17.1,7.2,30.14,West,259,4.0,-999.0,64,-99.99,,,-99.99,custom,2013-02-02 06:45:00,
2013-02-02 01:50:00,17.1,5.7,30.13,West,274,3.0,-999.0,59,-99.99,,,-99.99,custom,2013-02-02 06:50:00,
2013-02-02 01:55:00,17.4,7.5,30.13,SSW,209,4.0,-999.0,64,-99.99,,,-99.99,custom,2013-02-02 06:55:00,
2013-02-02 02:01:00,17.4,6.6,30.14,SW,223,6.0,-999.0,61,-99.99,,,-99.99,custom,2013-02-02 07:01:00,
2013-02-02 02:06:00,17.1,7.2,30.14,WNW,283,4.0,-999.0,64,-99.99,,,-99.99,custom,2013-02-02 07:06:00,
2013-02-02 02:11:00,16.9,6.6,30.11,West,265,6.0,-999.0,63,-99.99,,,-99.99,custom,2013-02-02 07:11:00,
2013-02-02 02:16:00,17.1,7.2,30.13,North,7,1.0,-999.0,64,-99.99,,,-99.99,custom,2013-02-02 07:16:00,
2013-02-02 02:21:00,16.9,7.0,30.12,NW,320,2.0,-999.0,64,-99.99,,,-99.99,custom,2013-02-02 07:21:00,
2013-02-02 02:26:00,17.4,8.2,30.14,NE,35,1.0,-999.0,66,-99.99,,,-99.99,custom,2013-02-02 07:26:00,
2013-02-02 02:31:00,17.4,8.6,30.16,SSW,198,2.0,-999.0,67,-99.99,,,-99.99,custom,2013-02-02 07:31:00,
2013-02-02 02:36:00,17.4,7.3,30.14,NW,309,5.0,-999.0,63,-99.99,,,-99.99,custom,2013-02-02 07:36:00,
2013-02-02 02:41:00,16.9,7.0,30.12,WSW,251,2.0,-999.0,64,-99.99,,,-99.99,custom,2013-02-02 07:41:00,
2013-02-02 02:46:00,16.9,6.3,30.15,SW,232,4.0,-999.0,61,-99.99,,,-99.99,custom,2013-02-02 07:46:00,
2013-02-02 02:51:00,16.9,5.7,30.15,WNW,301,2.0,-999.0,60,-99.99,,,-99.99,custom,2013-02-02 07:51:00,
2013-02-02 02:56:00,16.7,5.7,30.16,WNW,301,2.0,-999.0,61,-99.99,,,-99.99,custom,2013-02-02 07:56:00,
2013-02-02 03:01:00,16.9,8.6,30.15,SSW,208,4.0,-999.0,69,-99.99,,,-99.99,custom,2013-02-02 08:01:00,
2013-02-02 03:06:00,16.5,7.0,30.16,SW,228,1.0,-999.0,65,-99.99,,,-99.99,custom,2013-02-02 08:06:00,
2013-02-02 03:11:00,16.7,7.0,30.15,South,177,2.0,-999.0,64,-99.99,,,-99.99,custom,2013-02-02 08:11:00,
2013-02-02 03:16:00,16.7,5.0,30.14,NW,326,2.0,-999.0,58,-99.99,,,-99.99,custom,2013-02-02 08:16:00,
2013-02-02 03:21:00,16.7,7.3,30.13,East,101,0.0,-999.0,65,-99.99,,,-99.99,custom,2013-02-02 08:21:00,
2013-02-02 03:26:00,16.5,4.8,30.15,NW,311,4.0,-999.0,59,-99.99,,,-99.99,custom,2013-02-02 08:26:00,
2013-02-02 03:31:00,16.5,6.8,30.16,ENE,75,1.0,-999.0,64,-99.99,,,-99.99,custom,2013-02-02 08:31:00,
2013-02-02 03:36:00,16.5,4.5,30.18,WSW,240,2.0,-999.0,58,-99.99,,,-99.99,custom,2013-02-02 08:36:00,
2013-02-02 03:41:00,16.0,4.6,30.19,NW,311,6.0,-999.0,59,-99.99,,,-99.99,custom,2013-02-02 08:41:00,
2013-02-02 03:46:00,16.5,5.2,30.16,NNE,29,1.0,-999.0,60,-99.99,,,-99.99,custom,2013-02-02 08:46:00,
2013-02-02 03:51:00,15.8,7.0,30.17,North,0,0.0,-999.0,67,-99.99,,,-99.99,custom,2013-02-02 08:51:00,
2013-02-02 03:56:00,16.0,4.8,30.17,West,273,3.0,-999.0,60,-99.99,,,-99.99,custom,2013-02-02 08:56:00,
2013-02-02 04:01:00,15.4,7.2,30.18,SW,219,4.0,-999.0,69,-99.99,,,-99.99,custom,2013-02-02 09:01:00,
2013-02-02 04:06:00,15.4,3.7,30.17,WNW,292,3.0,-999.0,58,-99.99,,,-99.99,custom,2013-02-02 09:06:00,
2013-02-02 04:11:00,16.0,7.2,30.18,South,172,1.0,-999.0,67,-99.99,,,-99.99,custom,2013-02-02 09:11:00,
2013-02-02 04:16:00,15.8,4.8,30.18,NW,304,1.0,-999.0,61,-99.99,,,-99.99,custom,2013-02-02 09:16:00,
2013-02-02 04:21:00,16.0,8.1,30.17,SE,140,0.0,-999.0,70,-99.99,,,-99.99,custom,2013-02-02 09:21:00,
2013-02-02 04:26:00,16.0,7.5,30.17,SSW,212,0.0,-999.0,68,-99.99,,,-99.99,custom,2013-02-02 09:26:00,
2013-02-02 04:31:00,15.4,4.5,30.18,WSW,249,7.0,-999.0,60,-99.99,,,-99.99,custom,2013-02-02 09:31:00,
2013-02-02 04:36:00,15.3,2.7,30.20,SW,216,5.0,-999.0,56,-99.99,,,-99.99,custom,2013-02-02 09:36:00,
2013-02-02 04:41:00,15.3,4.6,30.18,South,186,3.0,-999.0,61,-99.99,,,-99.99,custom,2013-02-02 09:41:00,
2013-02-02 04:46:00,15.4,4.8,30.19,West,263,4.0,-999.0,62,-99.99,,,-99.99,custom,2013-02-02 09:46:00,
2013-02-02 04:51:00,15.3,3.7,30.19,SW,232,6.0,-999.0,59,-99.99,,,-99.99,custom,2013-02-02 09:51:00,
2013-02-02 04:56:00,15.4,5.2,30.21,NW,314,2.0,-999.0,63,-99.99,,,-99.99,custom,2013-02-02 09:56:00,
2013-02-02 05:01:00,15.4,5.0,30.20,WNW,294,3.0,-999.0,62,-99.99,,,-99.99,custom,2013-02-02 10:01:00,
2013-02-02 05:06:00,15.1,4.8,30.20,WNW,293,1.0,-999.0,63,-99.99,,,-99.99,custom,2013-02-02 10:06:00,
2013-02-02 05:11:00,15.3,5.5,30.20,WSW,241,0.0,-999.0,64,-99.99,,,-99.99,custom,2013-02-02 10:11:00,
2013-02-02 05:16:00,15.1,5.7,30.20,SSW,197,1.0,-999.0,65,-99.99,,,-99.99,custom,2013-02-02 10:16:00,
2013-02-02 05:21:00,15.3,6.8,30.20,East,83,0.0,-999.0,68,-99.99,,,-99.99,custom,2013-02-02 10:21:00,
2013-02-02 05:26:00,15.8,7.0,30.21,SSE,154,1.0,-999.0,67,-99.99,,,-99.99,custom,2013-02-02 10:26:00,
2013-02-02 05:31:00,15.4,5.4,30.19,SSW,205,3.0,-999.0,63,-99.99,,,-99.99,custom,2013-02-02 10:31:00,
2013-02-02 05:36:00,15.3,2.8,30.22,WSW,256,3.0,-999.0,57,-99.99,,,-99.99,custom,2013-02-02 10:36:00,
2013-02-02 05:41:00,14.9,3.4,30.20,South,181,1.0,-999.0,59,-99.99,,,-99.99,custom,2013-02-02 10:41:00,
2013-02-02 05:46:00,14.9,5.2,30.19,South,184,1.0,-999.0,64,-99.99,,,-99.99,custom,2013-02-02 10:46:00,
2013-02-02 05:51:00,14.5,3.4,30.19,NW,315,3.0,-999.0,60,-99.99,,,-99.99,custom,2013-02-02 10:51:00,
2013-02-02 05:56:00,14.5,3.7,30.20,WSW,255,2.0,-999.0,61,-99.99,,,-99.99,custom,2013-02-02 10:56:00,
2013-02-02 06:01:00,14.5,4.1,30.20,WSW,239,2.0,-999.0,62,-99.99,,,-99.99,custom,2013-02-02 11:01:00,
2013-02-02 06:06:00,14.4,3.7,30.19,WNW,292,0.0,-999.0,61,-99.99,,,-99.99,custom,2013-02-02 11:06:00,
2013-02-02 06:11:00,14.9,6.8,30.20,SSE,166,1.0,-999.0,69,-99.99,,,-99.99,custom,2013-02-02 11:11:00,
2013-02-02 06:16:00,15.1,5.4,30.19,NNE,29,0.0,-999.0,64,-99.99,,,-99.99,custom,2013-02-02 11:16:00,
2013-02-02 06:21:00,14.9,5.5,30.20,SSW,204,3.0,-999.0,65,-99.99,,,-99.99,custom,2013-02-02 11:21:00,
2013-02-02 06:26:00,14.5,4.1,30.24,SSE,164,1.0,-999.0,62,-99.99,,,-99.99,custom,2013-02-02 11:26:00,
2013-02-02 06:31:00,15.3,4.8,30.19,South,179,1.0,-999.0,62,-99.99,,,-99.99,custom,2013-02-02 11:31:00,
2013-02-02 06:36:00,15.1,4.6,30.22,SSW,203,2.0,-999.0,62,-99.99,,,-99.99,custom,2013-02-02 11:36:00,
2013-02-02 06:41:00,15.1,5.4,30.24,SSW,193,1.0,-999.0,64,-99.99,,,-99.99,custom,2013-02-02 11:41:00,
2013-02-02 06:46:00,14.9,5.9,30.24,SSE,147,0.0,-999.0,66,-99.99,,,-99.99,custom,2013-02-02 11:46:00,
2013-02-02 06:51:00,14.4,3.4,30.24,NNW,338,1.0,-999.0,60,-99.99,,,-99.99,custom,2013-02-02 11:51:00,
2013-02-02 06:56:00,13.8,6.6,30.26,South,172,0.0,-999.0,72,-99.99,,,-99.99,custom,2013-02-02 11:56:00,
2013-02-02 07:01:00,15.1,4.3,30.23,East,88,1.0,-999.0,61,-99.99,,,-99.99,custom,2013-02-02 12:01:00,
2013-02-02 07:06:00,15.4,6.8,30.20,SE,139,1.0,-999.0,67,-99.99,,,-99.99,custom,2013-02-02 12:06:00,
2013-02-02 07:11:00,14.4,6.3,30.24,SSW,192,0.0,-999.0,69,-99.99,,,-99.99,custom,2013-02-02 12:11:00,
2013-02-02 07:16:00,14.4,4.3,30.28,SSW,197,1.0,-999.0,63,-99.99,,,-99.99,custom,2013-02-02 12:16:00,
2013-02-02 07:21:00,14.2,3.4,30.24,South,170,2.0,-999.0,61,-99.99,,,-99.99,custom,2013-02-02 12:21:00,
2013-02-02 07:26:00,14.2,4.6,30.24,SSW,199,2.0,-999.0,65,-99.99,,,-99.99,custom,2013-02-02 12:26:00,
2013-02-02 07:31:00,14.5,5.2,30.26,SSW,197,2.0,-999.0,65,-99.99,,,-99.99,custom,2013-02-02 12:31:00,
2013-02-02 07:36:00,14.5,5.2,30.22,South,184,1.0,-999.0,65,-99.99,,,-99.99,custom,2013-02-02 12:36:00,
2013-02-02 07:41:00,15.3,5.5,30.24,SSE,162,2.0,-999.0,64,-99.99,,,-99.99,custom,2013-02-02 12:41:00,
2013-02-02 07:46:00,15.4,4.6,30.25,SSE,162,3.0,-999.0,61,-99.99,,,-99.99,custom,2013-02-02 12:46:00,
2013-02-02 07:51:00,15.8,5.2,30.24,SSW,203,2.0,-999.0,61,-99.99,,,-99.99,custom,2013-02-02 12:51:00,
2013-02-02 07:56:00,14.5,0.9,30.26,WSW,255,4.0,-999.0,53,-99.99,,,-99.99,custom,2013-02-02 12:56:00,
2013-02-02 08:01:00,15.8,4.6,30.25,South,170,1.0,-999.0,60,-99.99,,,-99.99,custom,2013-02-02 13:01:00,
2013-02-02 08:06:00,15.8,1.0,30.25,SW,222,4.0,-999.0,51,-99.99,,,-99.99,custom,2013-02-02 13:06:00,
2013-02-02 08:11:00,15.4,2.3,30.24,SW,219,6.0,-999.0,55,-99.99,,,-99.99,custom,2013-02-02 13:11:00,
2013-02-02 08:16:00,15.3,1.6,30.24,SW,226,2.0,-999.0,53,-99.99,,,-99.99,custom,2013-02-02 13:16:00,
2013-02-02 08:21:00,15.4,3.4,30.26,WSW,249,5.0,-999.0,57,-99.99,,,-99.99,custom,2013-02-02 13:21:00,
2013-02-02 08:26:00,16.0,1.8,30.25,NW,319,4.0,-999.0,52,-99.99,,,-99.99,custom,2013-02-02 13:26:00,
2013-02-02 08:31:00,15.3,1.2,30.25,West,274,7.0,-999.0,52,-99.99,,,-99.99,custom,2013-02-02 13:31:00,
2013-02-02 08:36:00,16.2,4.1,30.25,WSW,254,1.0,-999.0,58,-99.99,,,-99.99,custom,2013-02-02 13:36:00,
2013-02-02 08:41:00,15.4,0.7,30.28,WNW,285,6.0,-999.0,51,-99.99,,,-99.99,custom,2013-02-02 13:41:00,
2013-02-02 08:46:00,15.8,1.9,30.25,SW,232,8.0,-999.0,53,-99.99,,,-99.99,custom,2013-02-02 13:46:00,
2013-02-02 08:51:00,16.2,1.9,30.26,SW,227,4.0,-999.0,52,-99.99,,,-99.99,custom,2013-02-02 13:51:00,
2013-02-02 08:56:00,16.7,3.0,30.27,SSW,209,5.0,-999.0,53,-99.99,,,-99.99,custom,2013-02-02 13:56:00,
2013-02-02 09:01:00,17.8,4.1,30.27,WNW,298,2.0,-999.0,54,-99.99,,,-99.99,custom,2013-02-02 14:01:00,
2013-02-02 09:06:00,17.4,2.5,30.27,North,5,1.0,-999.0,50,-99.99,,,-99.99,custom,2013-02-02 14:06:00,
2013-02-02 09:11:00,18.7,5.0,30.25,West,272,2.0,-999.0,54,-99.99,,,-99.99,custom,2013-02-02 14:11:00,
2013-02-02 09:16:00,18.9,4.5,30.24,NW,306,1.0,-999.0,52,-99.99,,,-99.99,custom,2013-02-02 14:16:00,
2013-02-02 09:21:00,18.0,2.7,30.25,West,267,7.0,-999.0,50,-99.99,,,-99.99,custom,2013-02-02 14:21:00,
2013-02-02 09:26:00,18.7,2.1,30.24,SW,216,6.0,-999.0,47,-99.99,,,-99.99,custom,2013-02-02 14:26:00,
2013-02-02 09:31:00,19.2,4.1,30.22,WNW,286,2.0,-999.0,50,-99.99,,,-99.99,custom,2013-02-02 14:31:00,
2013-02-02 09:36:00,17.8,2.1,30.27,WNW,290,6.0,-999.0,49,-99.99,,,-99.99,custom,2013-02-02 14:36:00,
2013-02-02 09:41:00,19.6,5.4,30.23,WNW,297,0.0,-999.0,52,-99.99,,,-99.99,custom,2013-02-02 14:41:00,
2013-02-02 09:46:00,19.6,3.4,30.24,WNW,282,3.0,-999.0,48,-99.99,,,-99.99,custom,2013-02-02 14:46:00,
2013-02-02 09:51:00,20.5,5.2,30.23,South,169,2.0,-999.0,50,-99.99,,,-99.99,custom,2013-02-02 14:51:00,
2013-02-02 09:56:00,19.8,1.4,30.23,SW,221,7.0,-999.0,43,-99.99,,,-99.99,custom,2013-02-02 14:56:00,
2013-02-02 10:01:00,19.8,2.3,30.22,SW,225,3.0,-999.0,45,-99.99,,,-99.99,custom,2013-02-02 15:01:00,
2013-02-02 10:06:00,21.7,3.2,30.21,NNW,342,2.0,-999.0,43,-99.99,,,-99.99,custom,2013-02-02 15:06:00,
2013-02-02 10:11:00,21.0,3.2,30.22,WNW,295,4.0,-999.0,45,-99.99,,,-99.99,custom,2013-02-02 15:11:00,
2013-02-02 10:16:00,21.7,6.3,30.22,SSW,199,1.0,-999.0,50,-99.99,,,-99.99,custom,2013-02-02 15:16:00,
2013-02-02 10:21:00,22.6,5.5,30.21,SSW,194,4.0,-999.0,46,-99.99,,,-99.99,custom,2013-02-02 15:21:00,
2013-02-02 10:26:00,22.1,3.0,30.23,SSW,204,7.0,-999.0,42,-99.99,,,-99.99,custom,2013-02-02 15:26:00,
2013-02-02 10:31:00,23.0,6.3,30.22,SSW,207,5.0,-999.0,47,-99.99,,,-99.99,custom,2013-02-02 15:31:00,
2013-02-02 10:36:00,23.0,4.5,30.22,NNW,336,2.0,-999.0,43,-99.99,,,-99.99,custom,2013-02-02 15:36:00,
2013-02-02 10:41:00,22.3,5.4,30.22,SW,223,6.0,-999.0,47,-99.99,,,-99.99,custom,2013-02-02 15:41:00,
2013-02-02 10:46:00,22.8,5.0,30.22,SSW,208,8.0,-999.0,45,-99.99,,,-99.99,custom,2013-02-02 15:46:00,
2013-02-02 10:51:00,21.7,3.0,30.20,West,262,6.0,-999.0,43,-99.99,,,-99.99,custom,2013-02-02 15:51:00,
2013-02-02 10:56:00,23.4,6.6,30.22,South,183,1.0,-999.0,47,-99.99,,,-99.99,custom,2013-02-02 15:56:00,
2013-02-02 11:01:00,23.9,6.4,30.22,SSW,207,5.0,-999.0,46,-99.99,,,-99.99,custom,2013-02-02 16:01:00,
2013-02-02 11:06:00,24.6,7.7,30.23,WNW,283,0.0,-999.0,47,-99.99,,,-99.99,custom,2013-02-02 16:06:00,
2013-02-02 11:11:00,25.2,7.0,30.21,South,181,5.0,-999.0,45,-99.99,,,-99.99,custom,2013-02-02 16:11:00,
2013-02-02 11:16:00,23.2,3.7,30.18,SSW,213,4.0,-999.0,42,-99.99,,,-99.99,custom,2013-02-02 16:16:00,
2013-02-02 11:21:00,23.0,4.8,30.21,SW,235,5.0,-999.0,44,-99.99,,,-99.99,custom,2013-02-02 16:21:00,
2013-02-02 11:26:00,22.8,4.3,30.17,NW,306,7.0,-999.0,44,-99.99,,,-99.99,custom,2013-02-02 16:26:00,
2013-02-02 11:31:00,23.2,6.3,30.19,SSW,210,8.0,-999.0,47,-99.99,,,-99.99,custom,2013-02-02 16:31:00,
2013-02-02 11:36:00,23.4,5.9,30.19,SSW,210,10.0,-999.0,46,-99.99,,,-99.99,custom,2013-02-02 16:36:00,
2013-02-02 11:41:00,23.2,5.2,30.19,SSW,210,12.0,-999.0,45,-99.99,,,-99.99,custom,2013-02-02 16:41:00,
2013-02-02 11:46:00,22.6,4.3,30.16,SW,218,9.0,-999.0,44,-99.99,,,-99.99,custom,2013-02-02 16:46:00,
2013-02-02 11:51:00,23.2,5.9,30.16,South,189,4.0,-999.0,46,-99.99,,,-99.99,custom,2013-02-02 16:51:00,
2013-02-02 11:56:00,24.1,7.2,30.20,SSW,193,3.0,-999.0,47,-99.99,,,-99.99,custom,2013-02-02 16:56:00,
2013-02-02 12:01:00,25.5,9.1,30.16,SW,222,1.0,-999.0,49,-99.99,,,-99.99,custom,2013-02-02 17:01:00,
2013-02-02 12:06:00,25.9,7.9,30.15,South,179,5.0,-999.0,45,-99.99,,,-99.99,custom,2013-02-02 17:06:00,
2013-02-02 12:11:00,24.8,5.5,30.16,SSW,212,5.0,-999.0,43,-99.99,,,-99.99,custom,2013-02-02 17:11:00,
2013-02-02 12:16:00,26.1,9.1,30.16,SSE,162,3.0,-999.0,47,-99.99,,,-99.99,custom,2013-02-02 17:16:00,
2013-02-02 12:21:00,25.2,7.0,30.15,SW,216,12.0,-999.0,45,-99.99,,,-99.99,custom,2013-02-02 17:21:00,
2013-02-02 12:26:00,25.5,7.7,30.19,SSW,211,10.0,-999.0,46,-99.99,,,-99.99,custom,2013-02-02 17:26:00,
2013-02-02 12:31:00,24.8,6.1,30.15,SSW,209,12.0,-999.0,43,-99.99,,,-99.99,custom,2013-02-02 17:31:00,
2013-02-02 12:36:00,25.9,7.7,30.17,SSW,213,3.0,-999.0,45,-99.99,,,-99.99,custom,2013-02-02 17:36:00,
2013-02-02 12:41:00,26.2,7.7,30.15,SSW,209,7.0,-999.0,44,-99.99,,,-99.99,custom,2013-02-02 17:41:00,
2013-02-02 12:46:00,25.7,7.0,30.14,SSW,213,13.0,-999.0,44,-99.99,,,-99.99,custom,2013-02-02 17:46:00,
2013-02-02 12:51:00,27.0,9.9,30.13,SSW,192,4.0,-999.0,47,-99.99,,,-99.99,custom,2013-02-02 17:51:00,
2013-02-02 12:56:00,26.6,7.7,30.13,South,187,9.0,-999.0,44,-99.99,,,-99.99,custom,2013-02-02 17:56:00,
2013-02-02 13:01:00,26.6,9.7,30.13,South,172,6.0,-999.0,48,-99.99,,,-99.99,custom,2013-02-02 18:01:00,
2013-02-02 13:06:00,26.1,7.7,30.11,SSW,212,11.0,-999.0,44,-99.99,,,-99.99,custom,2013-02-02 18:06:00,
2013-02-02 13:11:00,25.7,7.5,30.14,SSW,208,15.0,-999.0,45,-99.99,,,-99.99,custom,2013-02-02 18:11:00,
2013-02-02 13:16:00,25.9,7.5,30.14,WSW,250,11.0,-999.0,44,-99.99,,,-99.99,custom,2013-02-02 18:16:00,
2013-02-02 13:21:00,26.2,7.7,30.12,SW,224,6.0,-999.0,44,-99.99,,,-99.99,custom,2013-02-02 18:21:00,
2013-02-02 13:26:00,25.9,7.0,30.12,SSW,212,11.0,-999.0,43,-99.99,,,-99.99,custom,2013-02-02 18:26:00,
2013-02-02 13:31:00,28.0,10.4,30.12,SSE,167,7.0,-999.0,46,-99.99,,,-99.99,custom,2013-02-02 18:31:00,
2013-02-02 13:36:00,25.7,8.1,30.11,SW,222,11.0,-999.0,46,-99.99,,,-99.99,custom,2013-02-02 18:36:00,
2013-02-02 13:41:00,25.9,7.9,30.11,SW,232,8.0,-999.0,45,-99.99,,,-99.99,custom,2013-02-02 18:41:00,
2013-02-02 13:46:00,26.8,9.1,30.12,SW,221,10.0,-999.0,46,-99.99,,,-99.99,custom,2013-02-02 18:46:00,
2013-02-02 13:51:00,26.6,7.5,30.10,SW,217,11.0,-999.0,43,-99.99,,,-99.99,custom,2013-02-02 18:51:00,
2013-02-02 13:56:00,26.4,9.1,30.11,SW,222,8.0,-999.0,47,-99.99,,,-99.99,custom,2013-02-02 18:56:00,
2013-02-02 14:01:00,25.9,8.1,30.09,SSW,207,6.0,-999.0,45,-99.99,,,-99.99,custom,2013-02-02 19:01:00,
2013-02-02 14:06:00,25.7,8.1,30.11,South,176,8.0,-999.0,46,-99.99,,,-99.99,custom,2013-02-02 19:06:00,
2013-02-02 14:11:00,26.2,10.0,30.12,South,179,7.0,-999.0,49,-99.99,,,-99.99,custom,2013-02-02 19:11:00,
2013-02-02 14:16:00,26.1,9.3,30.09,South,189,6.0,-999.0,48,-99.99,,,-99.99,custom,2013-02-02 19:16:00,
2013-02-02 14:21:00,26.2,9.7,30.11,South,169,5.0,-999.0,48,-99.99,,,-99.99,custom,2013-02-02 19:21:00,
2013-02-02 14:26:00,26.4,9.5,30.09,SW,223,8.0,-999.0,47,-99.99,,,-99.99,custom,2013-02-02 19:26:00,
2013-02-02 14:31:00,26.8,10.2,30.11,SSW,213,7.0,-999.0,48,-99.99,,,-99.99,custom,2013-02-02 19:31:00,
2013-02-02 14:36:00,27.0,10.0,30.13,South,190,7.0,-999.0,48,-99.99,,,-99.99,custom,2013-02-02 19:36:00,
2013-02-02 14:41:00,27.0,10.8,30.12,SSW,209,7.0,-999.0,49,-99.99,,,-99.99,custom,2013-02-02 19:41:00,
2013-02-02 14:46:00,26.4,9.9,30.08,SSW,202,7.0,-999.0,48,-99.99,,,-99.99,custom,2013-02-02 19:46:00,
2013-02-02 14:51:00,26.1,9.3,30.08,South,184,5.0,-999.0,48,-99.99,,,-99.99,custom,2013-02-02 19:51:00,
2013-02-02 14:56:00,26.1,9.5,30.09,South,185,8.0,-999.0,48,-99.99,,,-99.99,custom,2013-02-02 19:56:00,
2013-02-02 15:01:00,25.9,8.6,30.08,SSW,211,7.0,-999.0,47,-99.99,,,-99.99,custom,2013-02-02 20:01:00,
2013-02-02 15:06:00,25.9,9.1,30.10,SW,215,7.0,-999.0,48,-99.99,,,-99.99,custom,2013-02-02 20:06:00,
2013-02-02 15:11:00,25.9,8.4,30.09,SSW,207,6.0,-999.0,46,-99.99,,,-99.99,custom,2013-02-02 20:11:00,
2013-02-02 15:16:00,25.9,7.9,30.07,SW,218,13.0,-999.0,45,-99.99,,,-99.99,custom,2013-02-02 20:16:00,
2013-02-02 15:21:00,25.9,9.3,30.09,SSW,208,7.0,-999.0,48,-99.99,,,-99.99,custom,2013-02-02 20:21:00,
2013-02-02 15:26:00,25.7,7.9,30.07,SSW,209,9.0,-999.0,45,-99.99,,,-99.99,custom,2013-02-02 20:26:00,
2013-02-02 15:31:00,25.7,8.4,30.08,SSW,212,9.0,-999.0,47,-99.99,,,-99.99,custom,2013-02-02 20:31:00,
2013-02-02 15:36:00,25.5,7.5,30.05,SSW,212,12.0,-999.0,45,-99.99,,,-99.99,custom,2013-02-02 20:36:00,
2013-02-02 15:41:00,26.1,10.4,30.08,SSW,204,4.0,-999.0,50,-99.99,,,-99.99,custom,2013-02-02 20:41:00,
2013-02-02 15:46:00,26.1,9.7,30.08,South,181,5.0,-999.0,49,-99.99,,,-99.99,custom,2013-02-02 20:46:00,
2013-02-02 15:51:00,26.2,9.9,30.05,SSW,205,7.0,-999.0,49,-99.99,,,-99.99,custom,2013-02-02 20:51:00,
2013-02-02 15:56:00,25.9,8.4,30.06,SSW,201,7.0,-999.0,46,-99.99,,,-99.99,custom,2013-02-02 20:56:00,
2013-02-02 16:01:00,26.1,8.6,30.06,SW,217,13.0,-999.0,46,-99.99,,,-99.99,custom,2013-02-02 21:01:00,
2013-02-02 16:06:00,26.1,9.3,30.07,SSW,210,4.0,-999.0,48,-99.99,,,-99.99,custom,2013-02-02 21:06:00,
2013-02-02 16:11:00,26.1,7.7,30.07,SSW,213,11.0,-999.0,44,-99.99,,,-99.99,custom,2013-02-02 21:11:00,
2013-02-02 16:16:00,25.7,7.5,30.06,SSW,192,7.0,-999.0,45,-99.99,,,-99.99,custom,2013-02-02 21:16:00,
2013-02-02 16:21:00,25.9,8.2,30.08,South,185,6.0,-999.0,46,-99.99,,,-99.99,custom,2013-02-02 21:21:00,
2013-02-02 16:26:00,25.9,9.0,30.05,SSW,202,6.0,-999.0,47,-99.99,,,-99.99,custom,2013-02-02 21:26:00,
2013-02-02 16:31:00,25.9,8.1,30.08,SSW,212,9.0,-999.0,46,-99.99,,,-99.99,custom,2013-02-02 21:31:00,
2013-02-02 16:36:00,26.1,8.4,30.08,SSW,208,5.0,-999.0,46,-99.99,,,-99.99,custom,2013-02-02 21:36:00,
2013-02-02 16:41:00,25.9,9.0,30.06,SSW,213,6.0,-999.0,48,-99.99,,,-99.99,custom,2013-02-02 21:41:00,
2013-02-02 16:46:00,25.5,8.1,30.05,SSW,205,9.0,-999.0,46,-99.99,,,-99.99,custom,2013-02-02 21:46:00,
2013-02-02 16:51:00,25.7,8.6,30.08,SSW,205,8.0,-999.0,47,-99.99,,,-99.99,custom,2013-02-02 21:51:00,
2013-02-02 16:56:00,26.1,10.2,30.08,South,172,3.0,-999.0,50,-99.99,,,-99.99,custom,2013-02-02 21:56:00,
2013-02-02 17:01:00,25.9,8.8,30.08,SSW,198,6.0,-999.0,47,-99.99,,,-99.99,custom,2013-02-02 22:01:00,
2013-02-02 17:06:00,25.9,9.5,30.04,South,185,6.0,-999.0,49,-99.99,,,-99.99,custom,2013-02-02 22:06:00,
2013-02-02 17:11:00,25.5,8.1,30.04,South,186,7.0,-999.0,46,-99.99,,,-99.99,custom,2013-02-02 22:11:00,
2013-02-02 17:16:00,25.9,8.6,30.07,SSE,164,4.0,-999.0,47,-99.99,,,-99.99,custom,2013-02-02 22:16:00,
2013-02-02 17:21:00,25.7,8.2,30.07,SSW,210,8.0,-999.0,46,-99.99,,,-99.99,custom,2013-02-02 22:21:00,
2013-02-02 17:26:00,25.2,6.6,30.09,SSW,203,9.0,-999.0,44,-99.99,,,-99.99,custom,2013-02-02 22:26:00,
2013-02-02 17:31:00,25.7,9.0,30.07,SSW,196,6.0,-999.0,48,-99.99,,,-99.99,custom,2013-02-02 22:31:00,
2013-02-02 17:36:00,25.5,7.7,30.09,SSW,211,7.0,-999.0,46,-99.99,,,-99.99,custom,2013-02-02 22:36:00,
2013-02-02 17:41:00,25.7,8.6,30.11,SW,215,5.0,-999.0,47,-99.99,,,-99.99,custom,2013-02-02 22:41:00,
2013-02-02 17:46:00,25.0,6.8,30.06,South,184,10.0,-999.0,45,-99.99,,,-99.99,custom,2013-02-02 22:46:00,
2013-02-02 17:51:00,25.0,8.1,30.08,SSW,201,7.0,-999.0,47,-99.99,,,-99.99,custom,2013-02-02 22:51:00,
2013-02-02 17:56:00,25.0,7.2,30.05,South,182,8.0,-999.0,46,-99.99,,,-99.99,custom,2013-02-02 22:56:00,
2013-02-02 18:01:00,25.0,8.6,30.04,SSW,203,6.0,-999.0,49,-99.99,,,-99.99,custom,2013-02-02 23:01:00,
2013-02-02 18:06:00,25.5,9.5,30.03,SSE,162,2.0,-999.0,50,-99.99,,,-99.99,custom,2013-02-02 23:06:00,
2013-02-02 18:11:00,25.0,9.0,30.04,SSE,167,3.0,-999.0,49,-99.99,,,-99.99,custom,2013-02-02 23:11:00,
2013-02-02 18:16:00,25.2,9.5,30.05,South,179,3.0,-999.0,50,-99.99,,,-99.99,custom,2013-02-02 23:16:00,
2013-02-02 18:21:00,25.5,9.3,30.08,South,175,4.0,-999.0,49,-99.99,,,-99.99,custom,2013-02-02 23:21:00,
2013-02-02 18:26:00,25.5,9.5,30.10,SSW,213,5.0,-999.0,50,-99.99,,,-99.99,custom,2013-02-02 23:26:00,
2013-02-02 18:31:00,25.0,9.0,30.09,SSE,152,3.0,-999.0,49,-99.99,,,-99.99,custom,2013-02-02 23:31:00,
2013-02-02 18:36:00,25.2,9.5,30.07,South,184,3.0,-999.0,50,-99.99,,,-99.99,custom,2013-02-02 23:36:00,
2013-02-02 18:41:00,24.8,9.3,30.05,SSW,192,3.0,-999.0,51,-99.99,,,-99.99,custom,2013-02-02 23:41:00,
2013-02-02 18:46:00,24.8,9.7,30.11,SSW,193,6.0,-999.0,51,-99.99,,,-99.99,custom,2013-02-02 23:46:00,
2013-02-02 18:51:00,24.8,9.7,30.07,SSE,165,3.0,-999.0,51,-99.99,,,-99.99,custom,2013-02-02 23:51:00,
2013-02-02 18:56:00,25.2,10.0,30.06,South,175,4.0,-999.0,51,-99.99,,,-99.99,custom,2013-02-02 23:56:00,
2013-02-02 19:01:00,24.8,10.0,30.06,South,176,4.0,-999.0,52,-99.99,,,-99.99,custom,2013-02-03 00:01:00,
2013-02-02 19:06:00,25.0,10.8,30.09,SSW,202,3.0,-999.0,53,-99.99,,,-99.99,custom,2013-02-03 00:06:00,
2013-02-02 19:11:00,24.6,10.2,30.06,SSW,193,2.0,-999.0,53,-99.99,,,-99.99,custom,2013-02-03 00:11:00,
2013-02-02 19:16:00,24.4,9.5,30.07,South,185,4.0,-999.0,51,-99.99,,,-99.99,custom,2013-02-03 00:16:00,
2013-02-02 19:21:00,24.6,10.6,30.07,South,176,4.0,-999.0,54,-99.99,,,-99.99,custom,2013-02-03 00:21:00,
2013-02-02 19:26:00,24.6,9.5,30.06,South,185,4.0,-999.0,51,-99.99,,,-99.99,custom,2013-02-03 00:26:00,
2013-02-02 19:31:00,24.8,9.9,30.07,South,186,3.0,-999.0,52,-99.99,,,-99.99,custom,2013-02-03 00:31:00,
2013-02-02 19:36:00,25.0,10.9,30.08,South,172,3.0,-999.0,54,-99.99,,,-99.99,custom,2013-02-03 00:36:00,
2013-02-02 19:41:00,25.2,11.3,30.05,SSW,207,3.0,-999.0,54,-99.99,,,-99.99,custom,2013-02-03 00:41:00,
2013-02-02 19:46:00,24.8,10.6,30.07,South,183,4.0,-999.0,53,-99.99,,,-99.99,custom,2013-02-03 00:46:00,
2013-02-02 19:51:00,24.6,10.2,30.04,South,184,3.0,-999.0,53,-99.99,,,-99.99,custom,2013-02-03 00:51:00,
2013-02-02 19:56:00,24.8,11.3,30.08,South,171,3.0,-999.0,55,-99.99,,,-99.99,custom,2013-02-03 00:56:00,
2013-02-02 20:01:00,25.0,11.7,30.06,SSE,164,4.0,-999.0,56,-99.99,,,-99.99,custom,2013-02-03 01:01:00,
2013-02-02 20:06:00,24.6,10.9,30.07,South,176,4.0,-999.0,55,-99.99,,,-99.99,custom,2013-02-03 01:06:00,
2013-02-02 20:11:00,24.6,11.3,30.07,SSE,167,3.0,-999.0,56,-99.99,,,-99.99,custom,2013-02-03 01:11:00,
2013-02-02 20:16:00,24.6,11.3,30.06,South,191,3.0,-999.0,55,-99.99,,,-99.99,custom,2013-02-03 01:16:00,
2013-02-02 20:21:00,24.6,11.5,30.06,South,178,4.0,-999.0,56,-99.99,,,-99.99,custom,2013-02-03 01:21:00,
2013-02-02 20:26:00,24.8,12.6,30.07,SSW,192,3.0,-999.0,58,-99.99,,,-99.99,custom,2013-02-03 01:26:00,
2013-02-02 20:31:00,24.4,10.9,30.06,SSW,211,6.0,-999.0,55,-99.99,,,-99.99,custom,2013-02-03 01:31:00,
2013-02-02 20:36:00,24.1,11.3,30.07,SSW,194,4.0,-999.0,57,-99.99,,,-99.99,custom,2013-02-03 01:36:00,
2013-02-02 20:41:00,24.3,11.5,30.06,SSW,211,6.0,-999.0,57,-99.99,,,-99.99,custom,2013-02-03 01:41:00,
2013-02-02 20:46:00,24.4,11.8,30.06,South,184,3.0,-999.0,57,-99.99,,,-99.99,custom,2013-02-03 01:46:00,
2013-02-02 20:51:00,24.1,10.9,30.06,SSW,198,4.0,-999.0,56,-99.99,,,-99.99,custom,2013-02-03 01:51:00,
2013-02-02 20:56:00,24.1,12.0,30.06,SSW,201,4.0,-999.0,59,-99.99,,,-99.99,custom,2013-02-03 01:56:00,
2013-02-02 21:01:00,24.3,12.2,30.05,SW,216,4.0,-999.0,59,-99.99,,,-99.99,custom,2013-02-03 02:01:00,
2013-02-02 21:06:00,24.3,11.8,30.04,South,185,5.0,-999.0,58,-99.99,,,-99.99,custom,2013-02-03 02:06:00,
2013-02-02 21:11:00,24.1,10.9,30.06,SSW,195,4.0,-999.0,56,-99.99,,,-99.99,custom,2013-02-03 02:11:00,
2013-02-02 21:16:00,24.3,12.9,30.05,South,189,2.0,-999.0,61,-99.99,,,-99.99,custom,2013-02-03 02:16:00,
2013-02-02 21:21:00,24.4,12.9,30.06,SSW,195,2.0,-999.0,60,-99.99,,,-99.99,custom,2013-02-03 02:21:00,
2013-02-02 21:26:00,24.6,13.5,30.03,SE,138,1.0,-999.0,61,-99.99,,,-99.99,custom,2013-02-03 02:26:00,
2013-02-02 21:31:00,24.4,10.4,30.05,SSW,202,5.0,-999.0,54,-99.99,,,-99.99,custom,2013-02-03 02:31:00,
2013-02-02 21:36:00,24.4,10.4,30.06,South,187,4.0,-999.0,54,-99.99,,,-99.99,custom,2013-02-03 02:36:00,
2013-02-02 21:41:00,24.3,10.6,30.04,SSW,195,2.0,-999.0,55,-99.99,,,-99.99,custom,2013-02-03 02:41:00,
2013-02-02 21:46:00,24.6,12.4,30.03,South,177,2.0,-999.0,59,-99.99,,,-99.99,custom,2013-02-03 02:46:00,
2013-02-02 21:51:00,24.1,10.2,30.06,SSW,199,3.0,-999.0,54,-99.99,,,-99.99,custom,2013-02-03 02:51:00,
2013-02-02 21:56:00,24.3,10.8,30.05,South,185,4.0,-999.0,55,-99.99,,,-99.99,custom,2013-02-03 02:56:00,
2013-02-02 22:01:00,24.6,11.5,30.07,SSW,195,2.0,-999.0,56,-99.99,,,-99.99,custom,2013-02-03 03:01:00,
2013-02-02 22:06:00,24.3,10.9,30.07,South,189,3.0,-999.0,55,-99.99,,,-99.99,custom,2013-02-03 03:06:00,
2013-02-02 22:11:00,24.3,10.8,30.07,South,179,3.0,-999.0,55,-99.99,,,-99.99,custom,2013-02-03 03:11:00,
2013-02-02 22:16:00,24.3,11.8,30.03,SSW,193,3.0,-999.0,58,-99.99,,,-99.99,custom,2013-02-03 03:16:00,
2013-02-02 22:21:00,24.1,10.6,30.04,South,179,3.0,-999.0,55,-99.99,,,-99.99,custom,2013-02-03 03:21:00,
2013-02-02 22:26:00,24.1,10.2,30.02,SSW,207,6.0,-999.0,54,-99.99,,,-99.99,custom,2013-02-03 03:26:00,
2013-02-02 22:31:00,24.1,10.0,30.04,SSW,206,4.0,-999.0,54,-99.99,,,-99.99,custom,2013-02-03 03:31:00,
2013-02-02 22:36:00,24.1,10.6,30.04,SSW,206,4.0,-999.0,55,-99.99,,,-99.99,custom,2013-02-03 03:36:00,
2013-02-02 22:41:00,23.9,9.5,30.05,SSW,209,5.0,-999.0,53,-99.99,,,-99.99,custom,2013-02-03 03:41:00,
2013-02-02 22:46:00,24.1,10.2,30.04,SSW,209,4.0,-999.0,54,-99.99,,,-99.99,custom,2013-02-03 03:46:00,
2013-02-02 22:51:00,23.5,9.1,30.07,SSW,201,7.0,-999.0,53,-99.99,,,-99.99,custom,2013-02-03 03:51:00,
2013-02-02 22:56:00,23.5,9.5,30.06,WSW,239,5.0,-999.0,53,-99.99,,,-99.99,custom,2013-02-03 03:56:00,
2013-02-02 23:01:00,23.9,10.2,30.04,SW,215,4.0,-999.0,55,-99.99,,,-99.99,custom,2013-02-03 04:01:00,
2013-02-02 23:06:00,23.9,10.2,30.06,SW,224,4.0,-999.0,55,-99.99,,,-99.99,custom,2013-02-03 04:06:00,
2013-02-02 23:11:00,23.2,8.4,30.05,SW,214,8.0,-999.0,52,-99.99,,,-99.99,custom,2013-02-03 04:11:00,
2013-02-02 23:16:00,23.9,10.8,30.06,SSW,203,3.0,-999.0,56,-99.99,,,-99.99,custom,2013-02-03 04:16:00,
2013-02-02 23:21:00,23.2,8.8,30.04,SW,217,7.0,-999.0,53,-99.99,,,-99.99,custom,2013-02-03 04:21:00,
2013-02-02 23:26:00,23.0,10.4,30.05,WSW,255,8.0,-999.0,57,-99.99,,,-99.99,custom,2013-02-03 04:26:00,
2013-02-02 23:31:00,23.2,12.2,30.04,SW,224,6.0,-999.0,61,-99.99,,,-99.99,custom,2013-02-03 04:31:00,
2013-02-02 23:36:00,22.8,9.5,30.02,SW,223,5.0,-999.0,55,-99.99,,,-99.99,custom,2013-02-03 04:36:00,
2013-02-02 23:41:00,23.0,10.8,30.05,WSW,252,4.0,-999.0,58,-99.99,,,-99.99,custom,2013-02-03 04:41:00,
2013-02-02 23:46:00,22.8,10.2,30.02,WSW,244,5.0,-999.0,57,-99.99,,,-99.99,custom,2013-02-03 04:46:00,
2013-02-02 23:51:00,22.6,11.1,30.04,SW,233,3.0,-999.0,60,-99.99,,,-99.99,custom,2013-02-03 04:51:00,
2013-02-02 23:56:00,22.8,10.9,30.05,SSW,208,5.0,-999.0,59,-99.99,,,-99.99,custom,2013-02-03 04:56:00,